Terminal Aerodrome Forecast
Issued by NWS Green Bay, WI

Home | Current Version | Previous Version | Text Only | Print | Product List | Glossary Off
Versions: 1 2 3 4 5 6 7 8 9 10 11 12 13 14 15 16 17 18 19 20 21 22 23 24 25 26 27 28 29 30 31 32

475
FTUS43 KGRB 091130
TAFGRB
TAF
KGRB 091130Z 0912/1012 29008KT P6SM SCT050
      TEMPO 0912/0916 -SN SCT030 BKN050
     FM091600 28009G14KT P6SM SCT030 SCT050
     FM092200 28007KT P6SM SCT045=

USA.gov is the U.S. government's official web portal to all federal, state and local government web resources and services.